Flag for Germany Weather past 2 weeks in Langen, Hesse, Germany

Now
39 °F

Light rain. Mostly cloudy.


Feels Like: 31 °F
Forecast: 30 / 49 °F
Wind: 14 mph from Southwest

Location: Frankfurt-M-Flughafen Airport

Current Time: Apr 2, 2015 at 7:30:46 AM

Latest Report: Apr 2, 2015 at 6:50 AM


Visibility: N/A

Pressure: 29.86 "Hg

Humidity: 93%

Dew point: 37 °F

Location of LangenLocation

Historic Weather in Langen — Graph

°F

Langen temperature yesterday

Maximum temperature yesterday: 48 °F (at 1:50 PM)
Minimum temperature yesterday: 37 °F (at 12:50 AM)
Average temperature yesterday: 43 °F

Past Weeks' High & Low Weather Summary

 TemperatureHumidityPressure
High64 °F (Mar 18, 2:50 PM)100% (Mar 21, 5:50 AM)30.30 "Hg (Mar 21, 5:50 AM)
Low28 °F (Mar 24, 3:50 AM)32% (Mar 26, 4:50 PM)29.39 "Hg (Mar 29, 9:20 PM)
Average46 °F69%29.94 "Hg
* Reported Mar 18 5:20 AM — Apr 2 6:20 AM, Langen, Weather by CustomWeather, © 2015

Note: Actual official high and low records may vary slightly from our data, if they occured in-between our weather recording intervals... More about our weather records

Advertising

Langen weather history for previous 24 hours

 ConditionsComfort  
Time TempWeatherWind HumidityBarometerVisibility
6:20 AM
Thu, Apr 2
41 °FLight rain. Low clouds.17 mph81%29.89 "HgN/A
5:50 AM41 °FLight rain. Passing clouds.20 mph81%29.89 "HgN/A
5:20 AM41 °FLight rain. Passing clouds.17 mph81%29.92 "HgN/A
4:50 AM41 °FLight rain. Overcast.16 mph81%29.95 "HgN/A
4:20 AM43 °FLight rain. Passing clouds.17 mph71%29.95 "HgN/A
3:50 AM43 °FLight rain. Passing clouds.15 mph71%29.98 "HgN/A
3:20 AM43 °FMostly cloudy.14 mph66%30.01 "HgN/A
2:50 AM43 °FMostly cloudy.14 mph71%30.01 "HgN/A
2:20 AM43 °FMostly cloudy.16 mph71%30.04 "HgN/A
1:50 AM41 °FClear.15 mph76%30.04 "Hg10 mi
1:20 AM41 °FPassing clouds.17 mph76%30.07 "HgN/A
12:50 AM41 °FPassing clouds.17 mph70%30.07 "HgN/A
12:20 AM43 °FClear.17 mph66%30.09 "Hg10 mi
11:50 PM
Wed, Apr 1
43 °FClear.17 mph66%30.09 "Hg10 mi
11:20 PM41 °FClear.16 mph66%30.09 "Hg10 mi
10:50 PM43 °FClear.15 mph61%30.09 "Hg10 mi
10:20 PM43 °FPassing clouds.15 mph61%30.09 "HgN/A
9:50 PM43 °FClear.14 mph61%30.12 "Hg10 mi
9:20 PM43 °FClear.13 mph61%30.12 "Hg10 mi
8:50 PM43 °FScattered clouds.10 mph61%30.12 "HgN/A
8:20 PM45 °FScattered showers. Scattered clouds.14 mph57%30.09 "HgN/A
7:50 PM45 °FScattered showers. Partly sunny.10 mph57%30.09 "HgN/A
7:20 PM45 °FSprinkles. Scattered clouds.16 mph57%30.09 "HgN/A
6:50 PM46 °FScattered showers. Partly sunny.20 mph50%30.09 "HgN/A
6:20 PM46 °FScattered showers. Scattered clouds.17 mph53%30.07 "HgN/A
5:50 PM46 °FScattered showers. Scattered clouds.12 mph62%30.07 "HgN/A
5:20 PM45 °FScattered showers. Scattered clouds.14 mph66%30.07 "HgN/A
4:50 PM43 °FScattered showers. Scattered clouds.13 mph81%30.09 "HgN/A
4:20 PM37 °FRain showers. Partly sunny.46 mph87%30.12 "Hg2 mi
3:50 PM43 °FScattered showers. Scattered clouds.16 mph76%30.07 "HgN/A
3:20 PM41 °FScattered clouds.13 mph81%30.09 "HgN/A
2:50 PM45 °FRain showers. Broken clouds.32 mph57%30.09 "HgN/A
2:20 PM48 °FScattered showers. Scattered clouds.22 mph50%30.07 "HgN/A
1:50 PM48 °FScattered showers. Scattered clouds.21 mph46%30.07 "HgN/A
1:20 PM45 °FSprinkles. Partly sunny.22 mph57%30.07 "HgN/A
12:50 PM46 °FScattered showers. Broken clouds.21 mph50%30.07 "HgN/A
12:20 PM45 °FPartly sunny.20 mph53%30.07 "HgN/A
11:50 AM46 °FScattered clouds.24 mph50%30.07 "HgN/A
11:20 AM45 °FScattered clouds.22 mph57%30.07 "HgN/A
10:50 AM45 °FScattered clouds.24 mph57%30.04 "HgN/A
10:20 AM43 °FScattered clouds.21 mph61%30.04 "HgN/A
9:50 AM43 °FScattered clouds.22 mph66%30.04 "HgN/A
9:20 AM43 °FScattered clouds.23 mph66%30.01 "HgN/A
8:50 AM41 °FScattered clouds.22 mph70%30.01 "HgN/A
8:20 AM41 °FScattered showers. Passing clouds.18 mph70%29.98 "HgN/A
7:50 AM39 °FSprinkles. Passing clouds.15 mph75%29.98 "HgN/A
7:20 AM39 °FScattered showers. Passing clouds.16 mph75%29.95 "HgN/A
Weather by CustomWeather, © 2015

See weather overviewHow to use our weather pages